Wind_Speed
44 44 42 42 42 44 47 50 53 55 58 59 60 61 61 62 63 65 66 67 68 69 69 69 70 70 71 71 71 71 71 71 71 71 72 73 73 74 74 75 75 75 75 75 76 78 81 83 85 86 87 86 85 83 82 82 82 82 81 78 72 68 66 65 66 65 64 66 67 69 72 72 71 71 70 67 63 61 60 59 58 57 57 57 56 55 54 54
45 45 44 42 41 43 45 48 52 54 57 59 61 62 63 65 66 67 68 70 71 73 74 74 75 75 76 76 75 75 75 75 74 74 74 75 74 75 76 77 77 77 77 77 77 77 79 81 84 86 87 88 87 85 84 83 83 82 80 76 71 68 67 67 67 65 66 68 69 70 72 72 71 70 68 66 63 61 59 58 58 58 57 57 55 54 53 52
46 46 45 43 41 42 43 46 49 52 56 58 61 63 64 66 68 70 72 73 75 77 78 79 80 80 81 81 80 80 80 79 78 77 77 76 76 76 77 78 79 79 79 79 79 78 78 79 81 84 87 88 88 87 86 85 84 82 80 76 69 68 70 70 68 66 68 71 70 71 71 71 70 68 66 65 62 60 59 58 58 57 57 56 54 53 52 51
48 47 46 43 41 41 42 45 47 50 53 57 60 62 65 67 70 73 75 78 80 81 83 84 85 85 86 86 85 85 85 84 82 81 80 78 77 78 79 80 80 80 80 81 81 80 79 79 80 83 86 87 88 88 87 86 84 83 81 75 69 70 73 71 67 69 72 72 72 72 71 71 70 67 65 65 62 60 59 58 57 57 56 54 53 52 51 50
49 48 46 43 41 41 42 45 48 50 53 57 60 63 67 70 73 76 79 82 84 86 87 89 89 90 91 91 91 90 90 89 87 85 83 82 81 81 81 82 82 82 82 82 82 82 81 80 80 82 83 85 87 88 87 86 86 85 82 75 73 74 73 70 69 72 74 73 74 72 71 71 70 67 65 64 62 61 59 57 57 56 55 54 52 51 50 49
50 48 46 43 41 40 42 45 48 52 55 58 62 66 70 74 77 80 83 86 88 90 91 92 93 94 95 96 96 95 95 94 91 89 88 87 85 84 84 84 84 84 84 83 83 84 84 83 82 82 82 83 85 86 87 88 88 86 82 78 77 76 73 71 72 74 74 74 75 73 72 71 69 68 66 64 62 60 57 57 57 55 53 53 52 51 49 48
51 48 45 42 40 40 41 44 48 51 55 59 64 69 73 77 79 82 85 87 90 92 94 95 96 98 99 100 100 100 100 98 96 94 94 92 90 88 87 87 87 87 86 85 85 84 85 85 84 83 82 83 83 83 87 89 88 86 83 81 81 77 74 74 74 74 75 75 75 74 73 71 70 68 66 64 63 60 57 57 56 54 53 52 51 51 49 47
52 48 44 41 39 39 40 42 46 49 55 60 66 71 74 76 78 80 83 85 88 89 92 94 96 99 101 103 104 105 105 103 101 100 99 96 95 93 92 91 90 89 88 88 87 86 86 86 86 86 84 83 82 82 85 86 87 86 84 83 82 78 76 77 75 74 76 76 75 74 73 72 71 69 66 65 64 60 59 58 57 55 54 52 51 50 49 47
52 48 43 40 37 37 39 41 45 51 57 63 67 70 71 72 74 76 78 79 81 83 84 86 89 93 97 100 103 107 108 107 106 104 103 101 99 98 96 95 93 92 91 90 89 88 88 88 88 88 86 85 82 82 83 83 85 86 85 84 82 80 79 80 77 75 77 76 75 75 75 74 71 69 67 66 63 61 60 59 58 56 54 53 51 50 49 47
52 47 42 38 36 36 38 42 48 54 59 63 66 67 67 66 67 68 70 71 73 75 77 78 80 84 88 92 96 102 105 106 108 108 108 106 105 103 101 99 97 96 94 93 92 91 90 89 89 88 87 86 84 82 82 81 83 84 84 85 82 81 82 82 79 77 77 76 75 75 75 74 72 70 67 65 62 62 61 60 59 57 55 53 51 50 49 47
51 45 40 37 36 37 41 46 52 56 60 63 64 63 62 61 61 62 63 65 66 68 70 72 74 76 79 83 88 94 97 99 103 106 109 111 110 108 106 104 102 100 98 96 94 93 92 91 90 89 89 88 85 84 82 81 82 81 83 85 83 83 84 83 80 78 78 76 75 76 76 75 72 69 67 64 63 63 62 61 60 58 55 53 51 50 48 47
50 44 39 36 37 39 44 49 54 57 60 61 60 59 57 56 56 57 58 60 61 63 64 65 67 69 71 75 82 87 89 92 96 100 104 109 111 112 110 108 106 104 101 99 98 96 94 93 91 90 91 89 86 86 84 81 81 79 81 84 84 85 84 82 81 80 79 77 76 77 76 73 70 68 67 64 64 65 63 61 60 58 56 53 52 50 49 48
49 42 38 37 39 43 47 52 56 58 59 58 55 53 53 53 53 54 55 57 59 60 61 62 62 63 65 70 77 80 82 86 89 93 97 102 107 110 112 111 109 108 105 103 101 98 97 95 93 92 91 89 88 88 84 81 81 79 79 82 84 85 83 80 81 80 79 79 77 78 76 70 68 69 69 66 66 66 63 61 61 59 57 54 53 51 50 49
48 42 39 39 42 46 50 55 58 59 58 55 51 48 48 49 51 52 54 57 59 61 62 62 61 60 60 65 73 75 76 80 83 88 91 95 100 104 108 111 111 111 109 107 104 101 99 97 95 94 91 90 90 88 85 84 83 80 80 81 82 82 81 80 81 80 80 80 78 79 76 69 71 71 69 67 67 67 64 63 62 60 57 55 53 52 51 50
48 42 41 42 44 48 53 56 59 59 57 53 48 45 44 45 47 49 52 56 59 61 63 63 63 61 59 63 69 70 72 75 77 82 87 90 94 98 103 108 112 113 112 110 106 104 102 100 98 96 93 91 90 88 87 87 85 82 81 79 77 78 80 81 81 80 81 81 80 81 76 71 74 72 67 69 68 67 66 64 62 60 58 55 54 52 51 50
48 44 43 44 47 51 55 58 60 59 56 51 47 44 43 43 45 47 50 53 57 60 62 63 64 63 62 64 65 65 68 72 73 76 81 86 90 94 99 104 109 113 113 112 109 106 105 103 100 98 96 93 91 89 90 88 86 84 79 75 74 75 79 80 79 80 82 81 80 80 75 75 78 72 68 70 68 68 67 65 63 60 58 55 54 53 51 52
50 47 46 47 50 53 57 60 61 60 56 50 46 44 42 43 44 46 48 51 54 56 58 60 62 63 65 67 67 63 63 66 69 72 77 83 87 91 95 100 105 110 114 113 111 109 107 105 103 100 98 95 92 91 92 89 85 81 76 73 73 74 77 78 78 80 82 81 80 79 77 79 78 72 70 72 69 69 68 66 65 62 59 56 54 53 53 54
53 50 49 50 52 56 59 62 63 61 56 51 46 44 43 43 44 46 48 50 51 51 52 55 58 61 64 67 69 63 57 58 64 69 74 78 83 88 92 96 101 106 112 114 112 111 109 108 106 103 101 98 95 92 89 84 81 79 76 73 73 74 75 75 76 79 81 80 81 81 79 79 76 72 73 74 71 69 68 68 66 63 60 57 55 55 55 55
56 53 52 53 55 58 62 64 65 62 58 53 48 45 44 44 44 46 49 50 49 47 47 49 52 56 60 64 66 62 56 55 58 64 70 73 77 83 88 92 96 101 107 112 112 111 111 110 108 105 101 97 93 87 83 82 82 81 80 77 76 75 74 73 73 75 79 81 82 81 79 78 75 73 75 75 72 70 69 68 66 63 60 57 56 56 57 57
60 56 55 56 58 61 64 66 67 65 60 55 50 47 45 44 44 45 48 51 48 43 43 45 47 52 56 58 60 60 58 55 54 58 64 67 71 78 84 88 92 96 101 108 112 112 113 113 109 104 99 94 91 88 86 87 85 83 82 79 78 74 71 72 71 73 78 81 81 81 80 79 77 76 77 76 73 71 70 68 65 63 60 58 58 59 59 59
66 60 58 59 60 63 66 68 69 67 61 56 52 49 47 45 45 45 47 51 47 40 39 41 42 47 51 52 54 57 56 52 51 53 56 61 67 74 79 84 88 92 96 103 110 113 113 113 108 102 98 97 95 93 92 90 86 84 82 80 78 73 71 73 72 72 78 80 80 82 82 81 79 78 78 76 74 72 70 68 66 65 62 60 60 61 61 60
72 65 62 62 63 66 68 70 70 68 63 57 53 50 48 47 47 47 46 50 48 39 36 37 37 41 45 48 49 51 51 50 48 47 50 56 63 70 75 80 84 88 94 101 107 111 111 108 104 102 102 101 98 96 94 90 86 84 82 81 79 76 73 74 72 72 77 79 80 81 82 81 80 79 79 76 73 71 69 68 68 67 64 62 61 62 62 60
78 69 65 65 66 68 70 71 72 70 64 58 54 51 49 48 48 48 46 47 47 42 38 35 34 35 39 42 44 45 45 46 45 43 46 53 60 67 71 76 81 85 92 98 103 106 105 102 103 105 105 102 99 97 95 91 87 85 83 82 81 78 75 73 72 73 75 77 79 80 80 81 81 80 78 75 72 71 69 68 68 66 64 62 62 62 61 60
82 74 68 68 69 70 72 73 73 71 66 60 56 52 50 48 47 47 46 44 44 43 41 38 35 33 35 37 40 41 41 41 41 41 46 52 59 65 69 73 79 84 89 94 98 100 99 102 107 110 107 103 100 98 96 93 89 86 84 83 81 79 75 73 74 75 75 77 78 77 77 79 79 77 76 74 72 71 69 67 65 63 61 61 61 60 60 60
86 78 71 69 71 72 73 74 74 72 67 61 56 52 49 48 47 46 45 43 41 41 40 38 36 33 33 34 36 37 38 37 38 41 46 52 57 62 67 71 76 81 85 90 95 95 97 105 111 110 107 104 102 99 97 93 89 86 84 82 81 79 76 76 76 76 76 76 75 75 75 76 75 75 75 73 71 70 68 66 64 62 61 59 58 58 59 61
89 81 74 70 71 73 74 75 75 74 68 62 57 53 51 51 49 45 44 42 39 38 37 36 34 32 31 32 32 33 35 36 37 40 45 50 54 59 63 67 71 76 81 86 91 92 95 103 108 108 105 104 103 100 96 93 90 87 84 82 81 78 77 78 77 76 75 74 74 74 73 72 73 73 73 71 70 69 68 66 64 63 62 59 58 59 60 62
90 84 76 72 71 73 75 76 76 74 69 63 58 55 53 53 50 45 42 41 37 35 34 33 32 31 30 29 29 31 32 34 36 38 42 46 50 54 58 64 69 73 78 84 88 89 94 100 104 106 105 105 104 100 96 94 91 87 84 83 81 78 80 80 77 77 75 75 75 73 72 71 71 71 70 69 69 68 67 66 65 64 62 60 60 61 62 62
91 86 78 74 72 74 76 77 77 75 70 64 60 57 54 53 51 46 40 38 35 32 31 30 29 28 28 27 27 29 29 31 34 35 39 42 47 51 55 61 66 69 75 81 83 85 91 95 99 103 105 105 102 99 97 95 91 88 85 84 81 80 82 81 79 78 77 76 74 71 71 69 67 67 67 67 67 66 65 64 64 63 62 62 63 64 64 62
92 87 80 75 74 75 77 78 78 77 72 65 61 59 55 53 51 46 40 36 34 32 30 28 28 25 23 24 25 26 26 28 30 32 36 40 45 49 52 57 63 66 71 76 77 82 88 91 96 103 105 104 101 100 99 96 93 90 86 84 83 82 83 83 81 80 78 75 70 69 68 65 63 63 63 62 62 61 61 63 63 63 63 64 65 66 64 61
92 88 81 77 76 76 77 79 80 79 74 68 63 60 57 54 51 47 42 38 35 33 30 27 27 25 20 20 22 23 24 25 27 30 34 38 42 46 49 53 59 63 67 71 74 80 87 89 95 103 106 105 103 101 99 97 96 92 87 86 86 84 85 85 83 81 78 72 69 68 65 62 61 59 58 57 56 57 58 59 60 61 63 64 65 65 63 60
92 88 82 78 77 77 78 80 81 80 75 69 65 62 59 55 51 48 45 41 37 33 29 26 25 24 20 18 19 20 21 22 25 28 32 35 39 42 46 49 54 59 62 67 73 80 86 89 95 102 105 105 105 103 100 99 98 93 89 89 88 86 86 85 84 81 74 68 67 66 63 61 59 56 56 55 54 55 55 55 56 58 60 63 65 64 62 60
92 89 83 79 78 77 79 81 81 80 76 71 67 63 59 56 53 50 46 41 36 32 29 25 22 21 19 17 16 18 19 20 23 26 29 32 35 39 42 45 49 54 59 65 72 79 84 87 92 98 103 105 105 102 101 101 98 94 93 92 90 88 87 85 83 76 69 68 68 65 62 60 56 54 55 53 53 54 53 55 56 57 59 62 63 62 59 58
92 89 84 80 78 78 79 81 81 80 76 72 68 63 59 58 55 52 48 42 37 32 28 24 21 18 16 14 13 15 17 18 20 23 26 28 32 35 38 41 44 49 55 63 70 76 81 85 90 96 101 103 103 103 101 99 96 94 93 90 88 87 84 81 77 72 70 69 66 63 61 57 54 55 53 51 51 53 53 54 55 57 60 60 59 56 54 54
91 89 85 81 79 79 79 80 81 80 77 73 68 62 60 59 57 53 48 44 39 33 28 24 20 16 13 11 11 12 14 15 17 20 22 25 29 32 34 37 40 44 52 60 67 72 77 83 89 94 99 100 101 101 99 96 93 91 89 86 86 84 80 77 74 73 72 68 64 62 60 56 54 54 52 51 52 53 54 55 56 57 57 54 51 48 47 48
90 88 86 82 80 80 79 80 81 80 78 73 67 63 61 59 56 52 47 43 39 34 29 24 19 15 11 9 9 9 11 13 15 17 20 23 26 29 31 34 38 42 49 57 63 69 75 81 86 91 95 98 99 99 98 97 95 93 91 89 88 86 82 79 77 76 73 68 64 62 58 55 54 52 51 52 53 52 53 54 54 53 51 48 45 44 44 44
89 88 86 83 81 80 79 80 81 81 77 72 68 65 63 60 57 52 46 41 37 33 30 25 18 14 10 8 7 7 8 11 12 15 18 21 24 27 30 34 37 41 47 54 61 68 75 80 84 88 93 97 98 99 98 97 97 96 93 90 88 87 83 79 77 76 72 66 63 61 57 54 52 51 52 53 52 52 52 51 50 49 47 45 43 43 42 42
89 87 87 85 82 80 80 80 80 80 76 72 69 66 62 59 57 52 45 40 35 32 29 25 19 14 11 8 5 5 6 9 11 13 16 20 23 26 30 34 37 41 47 54 62 68 74 78 82 86 91 96 99 99 98 98 97 95 90 88 87 85 80 77 75 74 70 66 64 61 57 55 54 54 55 54 53 53 51 49 49 48 46 44 43 43 42 42
89 88 87 85 83 81 80 80 80 79 76 72 71 67 61 58 56 52 44 39 35 32 29 25 20 16 12 8 5 3 5 7 10 13 16 20 24 27 31 34 38 42 47 54 62 68 74 78 82 86 91 96 99 99 99 99 97 93 91 90 87 82 79 76 74 72 69 67 65 61 58 57 56 56 56 55 54 53 51 49 48 47 45 44 44 43 42 42
89 87 87 86 84 82 80 79 79 78 77 73 71 67 61 58 57 53 44 38 36 33 30 26 22 17 13 8 5 2 2 6 9 13 17 21 25 29 32 35 39 42 47 54 61 67 73 77 82 87 93 98 99 100 99 98 95 93 91 90 87 84 81 77 73 71 71 68 65 62 59 56 56 56 56 55 54 54 52 50 48 48 46 46 45 44 43 43
88 87 87 87 86 83 80 79 79 80 78 74 70 67 62 59 57 52 43 37 34 33 30 28 24 19 14 9 5 2 2 4 8 12 17 22 26 30 33 36 39 43 48 55 61 66 71 76 82 88 94 98 100 99 97 95 93 92 89 87 85 83 80 76 72 71 71 68 65 62 58 56 56 55 54 54 54 53 52 51 50 49 48 47 47 45 45 45
88 88 88 88 87 85 81 79 79 80 77 72 68 66 62 58 56 52 44 36 34 33 32 29 25 20 15 10 5 2 5 6 9 13 18 22 26 30 34 37 41 45 51 56 61 65 70 76 82 87 92 96 98 98 96 94 92 89 86 84 81 79 76 72 69 69 68 66 63 60 58 57 56 55 55 56 55 54 53 52 51 51 50 50 48 46 47 48
88 88 89 88 88 86 82 80 79 78 76 70 66 65 62 57 55 53 46 37 33 32 32 30 26 20 16 12 7 2 6 9 10 13 17 22 27 30 34 38 42 46 52 58 61 64 70 76 81 84 89 94 97 98 97 94 92 88 86 85 82 78 75 71 68 68 67 65 62 60 58 57 57 57 57 57 55 54 53 53 52 51 50 48 47 47 48 48
88 88 89 89 88 86 83 80 78 77 75 69 64 63 61 57 55 53 47 38 32 31 32 30 26 20 16 13 8 3 6 11 13 14 17 21 27 31 34 38 41 45 49 56 61 65 71 77 81 86 92 96 97 97 96 94 92 88 86 84 81 77 75 72 70 69 67 65 63 61 60 58 57 58 57 56 55 55 54 54 52 50 48 47 46 47 47 46
88 87 88 88 88 85 82 80 78 77 75 69 64 62 60 57 54 53 48 39 33 32 33 31 26 21 17 13 8 4 6 11 14 17 20 23 26 31 34 37 40 42 46 52 59 66 72 77 83 89 95 98 99 98 96 93 89 86 84 81 78 76 74 71 67 66 66 66 64 62 61 59 58 58 57 56 56 56 55 54 52 49 48 47 48 48 47 46
87 87 88 88 87 85 82 80 77 76 75 70 65 62 60 56 54 53 50 41 34 33 34 32 28 22 17 13 8 5 7 10 14 18 21 24 27 31 35 38 39 41 45 49 56 64 72 78 83 87 91 94 95 93 89 85 83 82 82 81 79 77 73 67 63 62 64 65 63 62 62 60 59 58 58 57 57 57 55 53 51 49 49 49 49 49 47 46
87 87 88 88 87 85 82 79 77 75 74 70 65 62 60 56 53 53 51 43 36 33 34 32 28 22 17 13 9 6 8 11 15 18 21 24 27 31 35 38 39 41 44 48 54 61 69 76 79 83 87 90 89 87 85 83 82 81 81 80 78 75 72 69 65 63 63 63 62 63 62 60 59 59 58 58 59 57 54 52 50 50 50 50 50 49 47 46
86 87 88 88 87 85 82 79 76 74 72 69 64 60 59 56 52 51 50 44 36 32 32 32 28 21 16 13 9 8 10 12 15 18 20 23 26 30 34 38 40 41 45 50 55 60 66 72 75 80 86 89 89 88 87 85 82 80 78 76 74 73 70 68 65 63 62 62 62 62 62 61 61 60 59 58 58 56 53 52 51 50 50 50 49 48 47 47
85 85 87 88 87 85 82 79 76 73 71 69 64 60 58 54 49 48 48 44 36 31 31 32 28 21 15 12 9 10 13 15 15 17 19 22 25 29 33 37 40 42 47 52 57 60 64 68 73 79 84 86 87 87 85 83 80 78 77 75 73 71 68 66 64 62 62 62 62 61 60 60 61 60 58 57 57 55 53 51 50 50 49 48 47 47 47 47
84 84 86 87 86 85 82 79 76 73 70 68 63 59 57 54 49 46 45 43 37 33 32 31 27 20 14 10 9 11 16 18 18 17 19 21 24 29 33 37 40 43 47 51 56 60 64 68 72 78 82 85 86 85 84 82 80 78 77 75 72 70 67 65 62 61 62 62 60 59 59 59 59 58 57 56 55 53 52 51 50 49 48 47 46 46 47 47
84 84 85 85 85 84 81 79 76 73 70 67 63 58 57 55 50 45 43 41 37 32 31 30 26 19 13 9 9 12 17 20 21 20 20 22 26 30 34 38 41 43 46 50 55 59 63 68 72 77 81 84 84 84 83 81 79 78 76 75 73 70 68 65 63 62 61 61 61 61 60 59 58 57 56 55 53 51 50 50 50 49 48 47 47 47 47 46
84 83 83 84 83 82 80 78 75 72 69 67 64 59 57 56 52 45 42 41 38 32 28 28 24 17 13 10 9 13 17 20 22 21 21 23 27 31 35 38 41 43 46 50 55 58 62 67 72 77 82 84 84 83 82 81 80 79 76 74 72 69 67 66 64 63 62 62 63 62 60 58 57 56 55 54 53 51 50 50 50 49 48 48 48 47 46 46
84 83 82 82 82 80 79 77 74 71 68 65 62 57 54 54 52 46 41 40 37 32 27 26 22 17 13 11 10 13 17 19 21 21 20 23 27 31 35 38 41 44 48 52 55 58 62 66 71 77 81 83 83 82 81 80 78 76 73 72 70 69 68 68 67 65 65 65 63 60 59 58 57 56 55 54 53 52 51 50 50 49 50 50 49 48 47 46
Wind_Direction
316 313 306 296 287 277 271 268 267 266 265 265 264 264 264 263 263 263 262 261 261 260 259 258 257 255 254 253 251 249 247 245 243 241 240 240 239 238 238 237 237 236 235 234 235 234 233 233 233 233 233 232 232 232 232 232 232 233 233 232 231 230 230 230 231 231 231 234 236 237 239 241 241 242 242 243 243 242 242 243 245 246 246 246 248 249 250 251
317 314 308 299 289 280 273 269 267 266 265 265 265 264 264 264 263 263 263 262 261 260 259 259 258 256 255 254 252 250 248 247 244 242 241 240 239 238 237 237 237 236 235 234 234 234 233 233 233 232 233 233 232 232 232 232 232 232 233 232 230 229 229 228 229 229 230 232 234 236 239 240 241 241 242 243 243 242 242 242 243 245 246 247 247 249 250 251
319 315 309 301 291 282 275 270 267 265 265 264 264 264 264 264 264 264 263 263 262 261 260 259 258 257 256 255 253 251 249 247 245 243 242 240 239 238 237 237 236 236 235 235 234 234 233 233 233 232 232 232 232 232 231 232 232 232 232 231 229 229 229 228 228 228 230 231 233 236 238 240 241 241 242 242 242 242 241 242 242 244 245 247 247 248 249 250
320 316 310 303 293 283 276 271 269 267 266 265 266 266 266 266 265 265 264 263 263 262 260 259 258 257 256 255 253 251 250 248 246 244 243 241 240 238 237 236 236 235 235 235 234 234 233 232 233 232 232 231 232 232 231 231 232 232 232 230 228 228 228 228 227 228 229 231 232 234 237 239 240 240 240 241 241 241 241 241 242 243 244 245 246 247 248 249
321 317 311 303 293 284 278 273 271 269 268 267 267 267 267 267 267 266 265 264 263 261 260 259 258 257 255 254 253 251 250 248 247 245 243 242 240 239 237 236 235 235 234 234 234 233 233 232 232 232 232 231 231 231 232 231 231 231 231 229 227 227 227 227 226 228 229 231 232 234 236 238 239 239 239 240 240 240 241 241 242 242 243 244 245 245 246 247
322 317 310 302 293 285 279 275 272 271 270 270 269 269 269 269 268 268 266 265 263 261 260 258 257 255 254 253 252 251 249 248 247 245 243 241 240 238 238 237 236 235 234 233 233 233 233 232 231 232 232 232 230 230 231 231 230 230 229 228 227 226 226 226 225 227 228 230 232 233 235 238 238 238 238 239 240 239 240 241 241 241 242 242 243 243 244 245
323 318 311 302 294 286 281 277 275 274 274 274 274 274 274 273 271 270 268 265 263 261 259 258 256 254 253 252 251 250 249 247 246 244 243 242 240 239 237 237 236 235 233 232 232 232 232 232 231 231 231 231 230 230 230 230 230 229 228 227 227 226 225 225 225 227 228 229 231 233 235 237 238 238 237 238 239 239 239 240 240 240 240 240 241 242 242 243
324 319 311 303 295 289 284 282 281 281 282 282 281 280 278 276 274 271 268 266 263 261 259 257 256 254 253 251 250 249 248 247 245 243 242 241 240 239 237 236 235 235 233 232 231 231 231 231 231 230 230 230 230 229 229 229 229 229 228 227 227 226 225 225 224 226 228 229 231 232 234 236 237 238 237 237 238 239 239 239 239 239 239 239 239 240 241 241
325 320 313 305 298 293 291 290 291 291 291 289 287 284 281 279 275 272 269 266 264 262 260 258 255 254 252 251 250 249 247 246 245 243 242 241 240 239 237 236 235 234 233 232 231 230 230 230 230 230 229 229 229 229 229 229 228 228 227 226 226 225 225 225 224 225 228 229 230 232 233 235 236 237 236 237 238 239 239 239 239 238 239 239 238 239 240 240
326 321 315 309 304 301 301 301 301 301 299 296 292 288 285 281 276 273 270 267 265 263 261 258 256 253 252 251 250 248 247 245 244 243 242 240 239 238 237 236 235 234 233 232 230 230 229 229 229 229 229 229 228 228 229 228 228 227 227 226 225 225 225 225 224 224 227 228 229 231 233 234 235 236 236 237 238 239 239 239 239 238 238 238 238 238 239 239
327 323 318 313 310 310 310 310 310 308 305 302 298 294 289 283 278 275 271 269 266 263 261 259 257 254 252 250 249 248 247 245 243 242 240 239 238 237 237 236 235 234 232 231 230 229 229 228 229 228 228 228 227 227 227 228 228 226 226 226 224 224 224 225 224 224 226 227 228 230 232 233 234 235 236 237 238 239 239 239 239 239 238 238 238 238 238 239
329 325 321 318 317 318 318 318 317 314 311 307 303 298 292 287 282 279 275 272 269 266 263 260 258 256 253 251 249 247 246 244 242 241 239 238 237 236 236 235 234 233 232 231 229 229 228 228 228 228 228 227 227 227 226 227 227 225 225 225 224 223 223 224 224 225 226 227 228 230 231 232 234 235 236 235 237 238 237 238 239 238 238 238 238 238 238 238
331 328 325 323 323 324 324 324 322 320 315 311 307 300 295 290 287 283 280 277 274 271 268 264 260 257 254 253 251 248 245 243 241 240 239 237 236 235 234 234 233 232 231 230 229 228 228 227 227 227 227 226 226 226 226 226 227 225 225 225 223 223 222 222 224 224 226 227 228 230 230 231 233 234 234 234 235 236 236 237 237 237 238 237 238 238 238 239
333 331 329 328 328 329 329 329 327 324 320 315 309 302 296 292 288 285 281 278 276 274 272 270 267 262 256 253 251 249 246 243 241 239 238 237 235 234 232 232 232 231 230 229 228 227 226 226 226 226 226 226 226 225 225 225 225 225 224 224 223 222 222 222 223 224 225 226 227 230 229 229 232 232 233 233 234 235 236 236 237 237 237 237 238 238 238 239
335 333 332 331 332 333 333 333 331 327 323 318 311 304 298 293 288 284 280 277 275 274 273 272 271 268 263 258 253 249 247 245 241 239 238 236 235 233 231 230 230 230 229 229 227 226 225 225 225 225 225 225 225 224 224 224 224 224 223 224 223 222 222 221 222 223 225 225 226 229 227 227 231 231 231 233 234 235 235 236 237 236 236 236 237 237 238 239
336 335 334 334 335 336 336 336 334 330 326 320 314 308 302 297 291 285 280 276 273 272 272 271 272 271 269 265 259 252 247 245 242 239 237 236 234 232 231 229 228 228 228 227 226 225 224 224 224 224 223 223 224 224 224 223 223 223 223 223 223 222 222 221 222 223 225 225 226 228 226 227 230 229 230 233 233 234 234 234 235 235 235 235 236 237 237 238
338 337 337 337 338 340 340 339 337 333 329 324 319 313 307 301 295 289 283 278 274 272 271 270 270 271 269 268 265 257 249 245 244 240 236 235 233 231 230 228 227 226 226 226 225 224 224 223 223 223 222 222 222 223 223 222 223 223 223 223 223 223 222 221 221 223 224 225 226 227 226 227 229 228 230 232 232 233 234 234 234 233 233 233 235 236 236 237
340 339 339 340 341 342 343 342 340 336 332 328 323 317 312 306 300 294 289 283 279 276 273 270 269 267 266 265 265 263 255 248 244 241 238 234 232 231 229 228 226 225 225 225 224 223 223 222 222 222 221 221 221 222 223 223 223 223 222 222 222 223 222 220 220 223 224 224 226 226 226 227 228 228 230 231 231 233 234 234 234 233 232 232 234 235 237 238
341 341 341 342 344 345 345 345 343 340 336 332 327 322 317 311 305 300 294 289 284 281 277 273 269 265 263 262 264 265 260 251 244 241 239 235 232 231 230 228 226 225 224 224 224 223 222 222 221 220 220 220 221 221 222 222 221 221 220 220 221 221 221 220 219 222 224 224 225 226 226 227 226 226 229 230 230 232 233 234 234 234 233 233 234 235 237 238
343 342 343 344 346 347 348 347 346 344 340 335 331 326 320 315 310 305 300 294 289 287 283 276 270 266 263 262 263 263 261 255 246 240 239 237 234 232 230 228 226 225 224 223 223 222 221 221 220 219 219 220 220 220 220 220 219 220 220 219 220 219 220 220 218 221 224 223 224 225 226 226 225 225 228 229 229 231 232 234 234 235 234 233 234 235 236 238
345 343 344 346 347 349 349 349 349 347 343 338 333 329 324 319 315 310 306 300 295 292 287 279 271 267 266 263 261 261 261 258 250 242 238 236 235 232 230 228 226 224 223 222 222 221 221 220 219 218 218 218 218 218 219 218 217 218 218 218 219 218 218 220 217 218 223 222 222 224 224 225 225 225 227 228 228 230 231 232 233 234 233 233 234 235 237 239
348 345 345 347 349 350 351 351 351 349 345 340 335 332 328 324 320 315 311 306 301 298 291 282 275 270 268 265 262 260 260 258 251 243 238 234 233 232 229 227 226 223 222 222 221 221 220 218 217 217 217 217 216 217 218 217 216 217 217 217 217 216 217 219 217 217 222 222 221 223 224 224 225 225 226 227 228 229 230 231 232 233 233 234 235 237 238 240
349 347 346 348 350 351 352 352 352 351 347 342 338 335 331 327 322 318 314 309 306 305 299 290 282 276 270 268 265 262 258 256 251 243 237 233 230 230 228 226 224 222 221 221 221 221 219 217 216 217 217 216 216 216 217 216 215 215 216 216 216 216 216 217 217 217 221 222 221 222 223 224 225 225 226 227 227 229 230 231 233 234 234 235 237 238 240 242
350 348 347 349 350 352 353 353 353 352 349 345 340 336 333 329 325 321 317 313 310 307 303 298 291 284 277 271 267 264 259 254 248 240 235 231 228 227 226 224 222 221 220 220 220 220 217 215 215 216 215 215 215 215 215 215 214 214 215 215 215 215 215 216 217 217 219 222 221 221 223 224 225 225 226 227 227 229 230 232 234 235 236 236 238 239 241 242
351 349 348 349 351 352 353 353 353 353 351 347 341 337 335 333 330 326 320 316 313 307 303 299 294 288 281 275 269 265 261 254 245 237 233 230 227 226 225 223 221 220 218 218 219 218 214 213 214 215 214 213 214 214 214 214 213 214 214 215 215 214 214 216 217 217 218 220 220 221 222 223 224 225 226 227 227 229 230 231 233 234 235 236 237 239 240 241
350 350 349 350 351 352 353 354 354 354 352 347 342 339 340 337 334 330 324 319 315 310 305 301 296 291 283 277 271 264 258 253 245 236 232 230 228 226 224 223 221 219 217 217 217 215 213 213 213 213 212 212 213 213 213 213 213 213 213 214 214 213 215 216 217 218 218 219 220 220 221 222 223 224 225 226 227 228 230 231 231 232 234 235 236 238 240 241
349 350 349 350 352 353 354 354 355 354 353 349 345 343 343 340 336 333 327 321 317 312 307 304 299 293 286 278 270 263 256 250 245 237 232 230 228 226 223 222 220 217 216 216 215 212 211 212 211 211 211 212 212 211 212 212 212 211 212 213 213 212 215 216 216 218 217 218 219 219 220 221 222 223 224 225 226 227 229 230 232 232 233 234 235 237 238 240
349 350 349 350 352 354 355 355 355 355 353 351 348 346 345 342 338 336 330 324 321 317 312 308 302 295 288 280 271 263 255 249 244 238 233 229 226 225 222 221 220 217 215 215 213 210 210 211 210 210 210 211 211 210 211 211 211 210 210 212 212 212 214 215 216 217 217 217 218 218 219 220 221 222 223 224 225 226 228 229 231 233 233 234 235 236 238 239
349 349 350 350 352 354 355 356 356 355 354 353 351 348 347 345 341 338 335 332 329 325 321 316 308 300 291 282 272 264 255 248 243 238 232 228 225 224 222 219 219 217 214 214 211 208 209 209 207 208 209 209 209 209 210 210 210 209 209 210 211 212 214 214 215 216 216 216 216 218 219 219 220 222 223 224 225 227 228 229 230 231 232 234 235 236 238 239
348 349 351 351 353 355 356 356 357 356 355 354 353 350 348 348 344 341 341 339 337 332 328 323 313 306 298 282 271 264 256 247 241 236 232 228 225 224 222 218 217 216 213 212 209 207 208 206 205 206 207 207 208 208 209 209 209 208 207 209 210 211 213 214 214 216 216 215 215 217 217 217 219 220 221 223 224 226 227 228 230 231 232 233 235 236 237 238
348 349 351 353 354 355 356 357 357 357 355 355 355 353 350 350 347 345 345 343 340 337 331 326 316 308 302 286 272 263 254 245 239 235 231 228 226 224 222 219 217 215 212 209 207 206 206 204 203 205 205 205 206 207 207 208 208 207 206 208 209 210 212 213 214 215 214 213 215 216 216 216 217 218 219 220 221 223 224 225 227 228 230 232 233 235 236 237
348 349 352 354 355 356 357 357 358 357 356 356 356 354 351 352 351 349 346 344 343 340 335 330 320 310 302 290 275 263 253 243 236 234 230 227 225 223 221 218 216 214 210 207 206 206 205 203 202 203 203 203 204 205 206 208 207 206 206 207 208 210 211 212 213 213 212 213 215 215 215 215 214 216 218 218 219 221 222 224 225 225 228 230 231 233 234 236
349 350 352 355 356 356 358 358 358 358 357 356 356 355 354 354 354 351 346 345 346 344 340 334 325 313 302 290 274 260 251 242 234 231 228 225 222 221 219 217 215 212 208 206 206 205 203 201 201 202 202 202 202 204 206 207 206 206 207 207 208 210 211 212 212 212 212 213 214 214 214 213 212 215 216 216 218 220 221 223 224 225 227 229 231 232 234 236
349 350 353 356 357 357 358 358 358 358 358 356 356 356 357 357 356 352 347 347 347 346 344 338 328 317 305 290 271 258 249 240 231 227 224 220 218 216 214 212 211 209 206 205 205 204 202 201 200 201 200 200 201 202 204 206 206 207 207 207 209 211 211 212 212 212 213 213 213 214 213 211 211 213 213 214 217 220 221 222 224 226 228 230 232 233 234 236
350 351 353 356 358 358 358 358 358 359 358 356 356 358 359 358 357 353 348 347 348 347 346 343 334 323 314 297 274 259 247 237 228 222 219 214 212 210 208 206 205 204 203 202 202 201 201 201 200 200 199 198 199 201 203 204 204 206 206 206 207 209 209 209 209 210 211 211 211 213 211 210 210 212 213 214 216 219 222 223 225 228 230 230 230 230 231 233
351 352 354 357 358 358 358 358 358 359 358 357 358 359 359 358 357 355 349 347 350 351 349 347 341 334 329 315 289 263 244 233 222 215 212 207 204 202 201 200 199 199 199 198 198 198 200 200 199 198 197 196 198 200 202 203 203 204 204 205 206 207 208 208 208 209 210 209 210 211 209 208 209 211 214 215 216 219 222 224 226 228 229 228 227 228 228 230
351 353 355 357 358 358 358 358 358 358 358 359 359 359 359 359 358 356 350 347 351 356 353 349 347 347 345 332 309 269 238 223 213 206 202 199 195 193 194 193 193 195 194 194 194 196 198 198 197 196 195 195 197 198 200 202 203 203 203 204 206 207 207 207 208 209 209 208 209 209 207 206 206 209 213 214 216 219 221 223 225 226 226 226 226 226 226 227
352 354 356 357 358 359 358 358 358 358 359 0 360 358 359 1 359 356 353 350 354 359 358 354 353 355 354 344 327 281 232 211 201 196 192 189 186 186 187 187 188 191 192 191 192 194 195 195 194 194 194 194 196 198 199 201 202 202 202 203 205 205 205 207 207 207 208 208 209 208 206 205 205 209 212 213 214 217 219 221 223 225 225 225 225 224 225 226
352 355 357 358 358 359 359 358 358 359 0 1 360 358 359 1 1 358 355 354 357 1 2 1 359 359 359 354 346 329 227 204 190 187 186 184 182 182 182 183 185 186 188 190 191 193 193 193 192 192 192 193 195 197 199 200 200 201 202 203 202 202 204 204 204 205 207 207 208 207 206 205 207 210 212 213 214 216 218 218 220 222 223 224 223 223 223 225
353 355 358 358 359 359 359 359 358 359 360 0 0 359 359 2 2 359 356 357 360 3 6 6 3 1 2 2 4 47 146 181 179 178 181 181 180 179 178 180 182 182 186 189 190 192 192 191 191 191 192 193 194 196 198 199 200 200 201 203 203 203 203 203 203 204 206 206 207 207 205 205 207 210 213 215 215 217 218 219 220 221 222 222 222 222 223 225
353 356 358 359 359 358 359 359 359 359 359 360 1 0 359 1 3 1 359 1 4 6 9 8 6 3 5 8 11 72 128 145 164 172 177 179 178 177 176 177 180 181 184 187 190 190 190 190 191 191 192 193 193 195 197 198 200 200 200 201 203 203 203 203 203 204 206 206 206 206 205 205 207 209 212 215 215 216 218 219 220 221 222 222 223 223 225 227
354 357 359 360 359 358 358 359 358 358 358 359 2 2 360 0 3 3 1 3 8 11 12 11 8 7 10 14 16 57 127 137 151 165 175 177 175 175 175 176 180 182 183 185 188 189 188 189 190 191 191 192 193 194 195 197 198 198 199 200 201 201 202 202 202 204 205 205 205 206 205 206 207 209 212 215 215 216 218 219 220 221 223 224 225 226 228 229
354 357 359 359 359 358 357 357 357 358 358 359 2 3 1 0 4 5 2 4 10 15 17 14 10 10 16 21 23 50 123 136 144 154 167 174 173 172 173 176 180 183 184 184 186 187 187 188 189 189 190 191 193 194 195 196 196 197 199 200 199 200 201 201 202 202 203 203 204 205 205 205 208 210 213 216 216 216 218 220 221 222 223 225 227 228 230 231
354 357 359 359 359 358 357 357 357 357 357 359 2 4 3 1 3 6 5 5 12 19 20 17 13 14 19 24 29 61 121 136 144 151 160 168 172 172 172 175 179 182 185 186 185 186 187 187 188 189 190 190 192 194 195 195 195 195 197 198 198 199 200 201 202 202 203 203 204 204 205 205 207 211 214 216 218 218 219 220 221 222 223 225 227 229 230 231
354 357 359 359 358 357 357 356 357 357 357 358 1 4 4 2 3 6 6 5 12 21 22 19 15 15 21 26 35 73 116 132 142 150 158 163 168 171 171 173 176 180 184 187 186 186 187 187 189 190 190 190 192 194 194 195 195 196 197 197 197 198 198 199 201 203 204 204 204 205 206 206 207 211 213 216 219 219 219 221 222 223 224 225 227 229 230 231
355 357 358 359 358 357 356 356 356 357 356 357 360 3 5 4 3 5 6 6 11 20 22 20 17 17 24 31 41 84 115 129 140 148 155 159 165 170 170 170 173 178 182 186 188 188 187 188 189 189 189 190 192 193 193 194 195 197 198 197 197 197 197 196 198 201 203 204 205 206 206 206 208 210 212 215 219 220 220 221 222 223 224 226 228 229 231 232
355 357 358 358 357 356 356 356 356 356 356 357 359 3 5 5 4 5 6 6 9 18 24 22 18 17 29 40 51 88 112 124 136 144 149 155 162 169 169 168 170 176 179 184 188 189 189 188 189 188 188 190 191 192 192 194 195 196 197 197 198 198 197 197 197 198 200 202 205 207 207 207 209 211 212 215 219 220 220 220 222 224 226 227 229 230 231 233
355 357 357 357 356 355 355 355 355 356 356 357 358 2 5 6 6 6 6 5 8 18 25 24 18 15 28 48 67 98 112 115 124 135 142 150 160 167 168 167 168 174 179 183 186 188 188 188 188 188 189 190 191 191 192 193 194 195 196 197 197 198 197 198 199 198 199 201 204 206 206 207 210 211 213 215 218 220 220 221 222 225 227 229 230 231 233 234
355 357 357 356 355 354 354 354 355 356 356 356 358 0 3 5 6 8 8 6 9 17 24 24 19 14 26 55 86 112 117 115 118 127 137 147 158 164 166 166 168 174 179 182 185 186 187 188 188 188 189 190 190 191 192 193 194 194 195 195 196 196 197 198 199 200 199 200 202 204 206 208 210 212 213 215 218 220 221 222 223 225 226 228 230 231 233 234
354 356 357 356 354 353 353 353 354 355 356 356 357 359 3 4 5 8 9 8 11 17 23 24 19 17 29 59 95 114 119 120 121 126 137 149 158 163 165 166 170 174 178 181 183 185 186 187 187 188 188 189 190 192 193 193 194 194 194 195 195 195 196 197 198 200 200 200 201 203 205 207 210 212 214 216 218 220 221 222 223 225 226 228 229 231 233 234
354 355 356 355 353 352 352 352 353 354 355 356 356 358 1 3 3 5 9 10 10 14 24 28 22 22 37 55 90 112 118 123 124 127 140 151 158 164 166 167 170 173 177 181 183 184 186 187 187 187 188 189 190 192 193 194 194 194 194 194 195 195 196 197 198 199 200 202 204 204 206 208 210 212 214 217 219 220 221 222 224 225 227 228 230 231 233 235
352 353 355 355 353 351 351 351 352 354 355 355 356 357 360 3 3 3 7 10 9 9 22 31 28 29 43 59 84 109 117 123 124 128 140 152 160 165 167 168 170 172 177 180 182 183 185 187 187 188 188 189 191 192 194 194 194 194 194 194 195 195 197 198 199 199 201 204 206 207 208 210 211 213 215 217 219 221 222 223 225 226 228 230 231 233 234 235
Height
10651 10647 10643 10640 10637 10634 10632 10631 10630 10630 10629 10628 10628 10627 10626 10625 10625 10623 10623 10622 10622 10622 10622 10623 10623 10623 10623 10624 10627 10629 10629 10631 10633 10636 10636 10638 10642 10646 10648 10649 10652 10655 10659 10662 10664 10667 10673 10676 10681 10685 10688 10693 10698 10704 10708 10712 10716 10719 10724 10734 10749 10758 10762 10765 10764 10768 10769 10763 10763 10760 10755 10755 10762 10769 10774 10781 10790 10795 10799 10802 10804 10807 10809 10810 10813 10816 10818 10820
10645 10641 10637 10633 10630 10627 10625 10623 10622 10621 10620 10619 10618 10617 10616 10615 10615 10614 10613 10612 10611 10611 10610 10611 10611 10611 10611 10612 10616 10617 10618 10619 10623 10625 10626 10629 10634 10637 10639 10640 10643 10645 10649 10654 10656 10659 10664 10668 10672 10677 10679 10684 10690 10695 10699 10704 10708 10713 10720 10731 10745 10753 10756 10756 10756 10761 10760 10755 10754 10752 10749 10751 10757 10765 10771 10778 10785 10790 10795 10798 10800 10802 10804 10806 10810 10812 10814 10816
10638 10634 10630 10626 10623 10620 10617 10615 10614 10613 10611 10610 10609 10608 10607 10605 10604 10603 10602 10601 10600 10599 10598 10598 10598 10599 10598 10599 10603 10605 10605 10607 10611 10614 10616 10621 10625 10628 10630 10631 10633 10636 10641 10645 10647 10651 10656 10660 10663 10667 10670 10675 10681 10686 10691 10696 10701 10708 10714 10726 10741 10747 10745 10746 10751 10754 10750 10747 10747 10745 10745 10748 10753 10762 10769 10774 10780 10786 10790 10793 10795 10798 10800 10803 10806 10809 10810 10812
10631 10626 10622 10619 10615 10613 10610 10608 10606 10605 10603 10602 10600 10598 10597 10595 10593 10592 10590 10588 10587 10586 10585 10585 10585 10585 10585 10586 10588 10591 10591 10593 10598 10603 10606 10612 10616 10617 10620 10621 10623 10627 10632 10635 10639 10642 10646 10651 10654 10656 10660 10666 10672 10676 10682 10689 10696 10701 10707 10723 10735 10735 10734 10740 10746 10745 10741 10740 10740 10739 10741 10744 10749 10758 10765 10769 10775 10781 10784 10788 10791 10793 10797 10799 10802 10805 10807 10809
10624 10619 10615 10611 10607 10605 10602 10601 10599 10597 10595 10593 10591 10589 10586 10584 10581 10579 10576 10574 10572 10571 10570 10570 10571 10571 10570 10571 10573 10576 10577 10578 10585 10592 10596 10600 10604 10606 10608 10610 10613 10617 10622 10626 10629 10632 10637 10642 10644 10646 10652 10658 10663 10669 10676 10683 10688 10691 10702 10717 10723 10723 10728 10735 10738 10735 10734 10734 10734 10736 10738 10740 10745 10754 10760 10765 10770 10775 10779 10784 10786 10789 10793 10796 10799 10801 10803 10804
10618 10613 10608 10604 10600 10597 10595 10593 10591 10589 10587 10584 10582 10579 10575 10572 10568 10565 10561 10558 10555 10553 10553 10554 10554 10555 10554 10555 10556 10558 10561 10564 10572 10579 10581 10585 10590 10594 10597 10600 10603 10607 10612 10616 10619 10623 10627 10631 10635 10639 10644 10648 10654 10663 10668 10672 10676 10684 10697 10707 10709 10715 10722 10725 10728 10727 10728 10729 10728 10732 10734 10735 10742 10749 10756 10761 10765 10771 10777 10779 10781 10785 10788 10791 10794 10796 10799 10801
10611 10605 10601 10596 10593 10590 10588 10585 10583 10581 10578 10575 10571 10566 10562 10557 10553 10549 10544 10540 10537 10535 10535 10535 10536 10537 10537 10538 10539 10540 10544 10549 10557 10563 10564 10570 10576 10581 10585 10588 10591 10595 10601 10606 10610 10614 10617 10622 10627 10630 10634 10639 10646 10654 10656 10660 10668 10678 10688 10695 10699 10708 10714 10715 10719 10721 10722 10723 10724 10728 10729 10732 10737 10744 10753 10758 10760 10767 10772 10773 10777 10781 10783 10787 10790 10792 10795 10797
10603 10598 10593 10589 10586 10583 10581 10578 10576 10573 10569 10564 10558 10552 10546 10541 10536 10530 10525 10520 10518 10517 10516 10517 10518 10519 10519 10521 10522 10522 10526 10532 10539 10545 10549 10556 10562 10567 10571 10575 10580 10583 10589 10595 10599 10603 10607 10611 10616 10619 10625 10630 10637 10643 10646 10653 10661 10670 10679 10687 10692 10701 10706 10706 10712 10715 10715 10717 10720 10723 10725 10728 10733 10740 10750 10753 10756 10763 10766 10769 10772 10775 10778 10782 10785 10788 10791 10794
10596 10591 10586 10582 10579 10576 10574 10571 10568 10564 10558 10550 10543 10536 10530 10524 10518 10512 10507 10503 10501 10500 10500 10501 10501 10501 10501 10503 10504 10504 10508 10515 10522 10529 10534 10541 10547 10552 10557 10562 10566 10571 10577 10582 10588 10593 10596 10600 10605 10610 10616 10621 10629 10634 10639 10646 10652 10662 10670 10676 10684 10692 10697 10698 10705 10709 10708 10711 10716 10718 10720 10723 10729 10736 10744 10748 10754 10759 10760 10764 10767 10770 10774 10777 10781 10784 10787 10790
10589 10583 10579 10575 10572 10570 10567 10563 10559 10552 10544 10535 10527 10520 10514 10508 10502 10496 10492 10489 10487 10485 10484 10484 10484 10485 10485 10486 10487 10485 10488 10498 10505 10512 10518 10524 10530 10536 10542 10547 10552 10559 10565 10570 10577 10582 10585 10591 10595 10602 10608 10613 10621 10626 10631 10638 10643 10654 10661 10667 10677 10684 10687 10691 10697 10702 10701 10706 10711 10713 10715 10719 10725 10731 10740 10747 10752 10754 10756 10759 10762 10766 10770 10773 10778 10780 10783 10786
10582 10577 10572 10569 10566 10563 10559 10554 10548 10540 10530 10520 10511 10503 10497 10492 10487 10483 10479 10476 10474 10472 10470 10469 10469 10470 10470 10471 10470 10465 10471 10481 10486 10491 10499 10506 10512 10518 10526 10532 10539 10545 10552 10559 10565 10570 10576 10581 10586 10593 10598 10602 10612 10617 10623 10629 10635 10646 10652 10658 10668 10674 10678 10684 10691 10695 10697 10702 10706 10707 10709 10714 10721 10729 10737 10744 10747 10748 10751 10754 10757 10761 10765 10770 10773 10776 10779 10781
10576 10571 10566 10563 10559 10556 10551 10544 10537 10527 10517 10507 10497 10489 10482 10477 10473 10470 10466 10463 10460 10457 10456 10455 10455 10455 10457 10457 10452 10449 10456 10464 10467 10473 10480 10486 10493 10502 10510 10517 10525 10532 10539 10546 10553 10559 10565 10571 10578 10583 10586 10596 10606 10608 10614 10622 10628 10638 10643 10648 10657 10662 10669 10678 10684 10689 10692 10697 10700 10700 10703 10712 10722 10728 10733 10739 10741 10740 10745 10749 10752 10756 10761 10765 10768 10771 10774 10776
10570 10565 10561 10557 10553 10548 10542 10534 10525 10516 10505 10495 10486 10477 10471 10465 10460 10457 10453 10450 10446 10444 10442 10441 10441 10442 10444 10442 10434 10435 10443 10447 10452 10457 10462 10469 10476 10485 10495 10503 10510 10517 10524 10532 10540 10548 10554 10561 10568 10572 10580 10590 10594 10598 10610 10617 10620 10629 10635 10639 10647 10654 10665 10675 10677 10682 10687 10690 10693 10693 10700 10713 10720 10721 10725 10732 10733 10733 10740 10744 10746 10751 10756 10760 10764 10767 10769 10771
10565 10560 10555 10550 10545 10540 10532 10524 10515 10505 10495 10485 10477 10469 10462 10456 10450 10447 10442 10438 10434 10431 10429 10427 10427 10427 10431 10428 10419 10422 10429 10432 10438 10442 10447 10454 10460 10469 10478 10487 10495 10502 10509 10517 10527 10536 10542 10550 10557 10562 10572 10579 10583 10593 10604 10606 10610 10619 10625 10630 10640 10651 10662 10668 10669 10676 10679 10683 10688 10686 10697 10712 10710 10711 10719 10725 10726 10729 10735 10738 10741 10747 10752 10756 10759 10762 10765 10766
10559 10554 10549 10543 10538 10531 10523 10514 10504 10495 10485 10476 10468 10461 10455 10448 10443 10438 10432 10428 10423 10420 10417 10415 10413 10413 10416 10412 10406 10411 10415 10417 10425 10430 10433 10439 10445 10453 10462 10471 10479 10485 10493 10502 10513 10523 10530 10538 10545 10553 10562 10568 10576 10586 10591 10595 10603 10609 10616 10626 10638 10648 10655 10658 10663 10670 10672 10676 10680 10679 10696 10707 10698 10706 10716 10717 10721 10724 10729 10733 10737 10743 10747 10752 10754 10758 10760 10761
10554 10548 10542 10536 10529 10522 10514 10504 10495 10485 10476 10467 10459 10452 10446 10440 10434 10429 10424 10418 10413 10410 10408 10405 10402 10401 10402 10397 10393 10398 10402 10404 10411 10417 10421 10425 10430 10437 10445 10454 10462 10470 10477 10487 10499 10510 10517 10526 10533 10541 10550 10558 10568 10577 10580 10588 10595 10602 10615 10626 10635 10641 10645 10651 10659 10663 10664 10669 10673 10677 10694 10696 10689 10703 10710 10709 10716 10719 10723 10728 10732 10738 10743 10747 10750 10753 10755 10755
10547 10541 10535 10528 10521 10513 10504 10495 10485 10476 10467 10458 10450 10443 10438 10432 10425 10419 10414 10409 10404 10401 10399 10396 10393 10391 10389 10385 10381 10383 10389 10394 10400 10404 10407 10410 10416 10423 10430 10437 10446 10455 10462 10472 10485 10496 10505 10513 10522 10531 10540 10549 10559 10565 10570 10582 10593 10604 10616 10624 10629 10633 10636 10645 10652 10654 10657 10664 10669 10675 10685 10683 10686 10702 10703 10703 10710 10712 10717 10722 10726 10733 10738 10742 10745 10748 10749 10749
10541 10534 10527 10520 10512 10504 10495 10486 10476 10466 10457 10449 10441 10434 10428 10422 10416 10409 10403 10398 10394 10392 10391 10388 10384 10381 10378 10373 10369 10370 10379 10385 10387 10390 10392 10397 10404 10410 10416 10423 10431 10441 10448 10457 10470 10483 10492 10500 10510 10518 10527 10538 10548 10558 10570 10586 10597 10604 10611 10617 10621 10624 10629 10638 10645 10648 10652 10659 10662 10667 10674 10678 10687 10696 10694 10697 10704 10707 10712 10715 10720 10727 10733 10738 10741 10742 10743 10744
10534 10527 10520 10512 10504 10496 10486 10477 10467 10457 10447 10439 10432 10426 10419 10413 10407 10400 10392 10386 10384 10383 10381 10378 10374 10370 10366 10362 10359 10362 10367 10370 10373 10377 10380 10387 10395 10399 10405 10412 10420 10429 10436 10446 10458 10470 10479 10487 10496 10506 10521 10537 10550 10564 10575 10582 10587 10592 10599 10605 10608 10614 10622 10631 10639 10643 10646 10650 10654 10660 10668 10673 10681 10686 10686 10691 10697 10701 10705 10709 10716 10723 10729 10735 10737 10737 10737 10738
10528 10520 10512 10504 10496 10487 10478 10468 10458 10448 10438 10430 10423 10417 10411 10404 10398 10391 10382 10374 10373 10374 10371 10368 10364 10358 10354 10354 10352 10353 10354 10357 10361 10365 10370 10379 10386 10389 10395 10402 10410 10419 10426 10436 10445 10455 10464 10471 10484 10503 10523 10538 10547 10556 10559 10562 10573 10582 10589 10596 10601 10609 10618 10623 10631 10636 10636 10641 10648 10655 10660 10664 10671 10677 10678 10683 10690 10695 10700 10706 10713 10718 10724 10729 10730 10731 10731 10734
10521 10513 10505 10497 10488 10479 10470 10460 10450 10440 10431 10423 10415 10408 10402 10395 10389 10382 10374 10363 10360 10365 10362 10357 10355 10349 10345 10345 10344 10343 10344 10346 10350 10355 10363 10371 10375 10378 10384 10390 10398 10407 10417 10424 10429 10438 10447 10458 10480 10504 10518 10524 10530 10539 10542 10552 10567 10574 10581 10590 10595 10604 10611 10614 10623 10628 10626 10632 10641 10645 10650 10656 10664 10670 10671 10677 10685 10690 10696 10702 10707 10711 10717 10721 10723 10725 10727 10731
10514 10506 10497 10489 10480 10472 10462 10453 10443 10433 10424 10416 10408 10401 10393 10386 10379 10373 10367 10356 10349 10353 10352 10348 10345 10341 10337 10335 10335 10336 10336 10337 10339 10346 10355 10359 10363 10366 10371 10378 10386 10396 10404 10407 10413 10422 10434 10456 10485 10500 10502 10507 10518 10528 10534 10547 10560 10566 10574 10581 10587 10596 10602 10606 10615 10620 10619 10626 10634 10637 10643 10650 10656 10662 10666 10674 10681 10686 10691 10696 10700 10705 10711 10716 10719 10721 10724 10729
10508 10499 10490 10481 10472 10464 10455 10446 10437 10427 10418 10409 10401 10394 10386 10379 10372 10364 10359 10350 10342 10341 10340 10338 10336 10334 10330 10327 10326 10327 10329 10329 10331 10339 10344 10347 10350 10354 10359 10367 10375 10383 10388 10393 10402 10412 10432 10463 10482 10481 10485 10499 10512 10521 10529 10540 10551 10559 10566 10572 10580 10588 10594 10602 10609 10612 10615 10620 10626 10632 10639 10644 10648 10656 10663 10671 10678 10682 10687 10691 10696 10702 10709 10713 10715 10718 10722 10726
10502 10493 10484 10474 10465 10457 10449 10439 10430 10421 10411 10402 10394 10387 10380 10372 10365 10357 10350 10344 10338 10333 10330 10328 10327 10326 10323 10321 10319 10318 10320 10322 10324 10330 10333 10333 10337 10341 10347 10353 10359 10367 10375 10384 10393 10406 10432 10456 10458 10459 10475 10492 10502 10511 10520 10531 10543 10552 10559 10566 10574 10582 10590 10596 10598 10603 10608 10610 10619 10628 10633 10638 10645 10654 10661 10668 10674 10678 10684 10689 10695 10701 10706 10709 10712 10715 10719 10720
10497 10488 10479 10469 10460 10451 10443 10433 10424 10414 10405 10397 10388 10381 10373 10365 10357 10351 10344 10338 10333 10328 10323 10321 10319 10318 10316 10314 10313 10312 10313 10314 10316 10320 10322 10323 10327 10331 10336 10341 10348 10357 10366 10375 10383 10400 10424 10434 10434 10447 10467 10481 10491 10502 10513 10526 10539 10546 10554 10562 10569 10578 10585 10588 10591 10597 10601 10606 10617 10624 10628 10636 10644 10650 10657 10664 10670 10676 10681 10686 10692 10697 10700 10704 10709 10711 10712 10713
10491 10483 10474 10465 10456 10446 10437 10428 10418 10409 10400 10391 10382 10374 10366 10358 10351 10345 10338 10332 10328 10323 10318 10315 10312 10310 10309 10307 10306 10305 10306 10307 10308 10311 10313 10315 10319 10324 10329 10335 10342 10349 10359 10367 10375 10392 10409 10416 10425 10443 10460 10472 10482 10495 10508 10521 10530 10539 10550 10557 10564 10574 10578 10581 10586 10591 10598 10606 10612 10617 10624 10632 10638 10644 10653 10660 10667 10671 10676 10682 10687 10691 10695 10700 10704 10705 10706 10706
10486 10478 10469 10460 10452 10442 10432 10422 10413 10404 10395 10385 10375 10367 10360 10352 10345 10339 10333 10327 10322 10318 10313 10309 10306 10304 10302 10301 10300 10299 10300 10300 10301 10304 10306 10310 10314 10318 10323 10328 10333 10341 10350 10356 10364 10382 10396 10404 10418 10435 10450 10462 10473 10489 10504 10513 10523 10535 10544 10549 10559 10567 10570 10574 10581 10585 10593 10598 10602 10611 10620 10626 10632 10641 10649 10656 10661 10666 10672 10678 10682 10686 10691 10695 10697 10698 10698 10700
10482 10473 10464 10455 10446 10437 10427 10418 10408 10398 10389 10380 10370 10361 10355 10348 10340 10333 10328 10323 10317 10313 10308 10304 10300 10298 10296 10295 10294 10294 10294 10295 10296 10298 10301 10304 10308 10311 10315 10320 10325 10333 10341 10346 10360 10380 10390 10399 10414 10429 10442 10454 10470 10487 10497 10505 10517 10527 10535 10543 10552 10558 10561 10567 10574 10578 10584 10590 10599 10610 10615 10622 10632 10639 10645 10651 10657 10664 10670 10674 10677 10682 10687 10689 10690 10691 10692 10696
10478 10469 10459 10449 10440 10431 10422 10412 10402 10392 10383 10374 10365 10357 10350 10343 10336 10329 10323 10318 10312 10307 10303 10299 10295 10293 10292 10290 10289 10289 10289 10290 10292 10294 10295 10298 10301 10304 10309 10314 10319 10327 10335 10344 10361 10376 10382 10393 10410 10421 10434 10450 10466 10478 10486 10498 10509 10517 10528 10537 10544 10550 10553 10559 10566 10571 10577 10588 10600 10607 10613 10624 10631 10636 10644 10650 10657 10663 10667 10669 10672 10676 10679 10681 10682 10685 10688 10694
10474 10465 10455 10444 10435 10427 10417 10407 10397 10388 10379 10370 10361 10353 10345 10339 10332 10325 10318 10312 10307 10302 10298 10295 10291 10288 10287 10286 10285 10284 10285 10286 10287 10289 10290 10293 10297 10300 10304 10309 10314 10322 10332 10345 10359 10367 10372 10386 10399 10408 10423 10441 10455 10466 10478 10490 10498 10509 10522 10529 10534 10541 10544 10551 10559 10564 10574 10589 10599 10604 10613 10622 10627 10635 10642 10648 10655 10658 10659 10663 10667 10670 10673 10674 10677 10680 10684 10690
10470 10461 10451 10441 10431 10423 10413 10404 10394 10385 10376 10366 10358 10350 10342 10336 10328 10320 10314 10309 10304 10299 10295 10292 10288 10285 10284 10282 10282 10281 10281 10282 10283 10285 10286 10289 10293 10296 10301 10306 10312 10320 10330 10341 10350 10356 10364 10377 10387 10399 10415 10430 10442 10457 10471 10480 10489 10504 10514 10518 10525 10532 10537 10545 10551 10560 10577 10592 10597 10602 10611 10617 10625 10633 10638 10644 10649 10650 10653 10657 10660 10663 10666 10667 10670 10674 10680 10684
10466 10457 10448 10437 10428 10419 10410 10400 10391 10382 10373 10364 10355 10348 10340 10332 10324 10316 10311 10307 10302 10297 10293 10290 10286 10283 10281 10280 10279 10279 10279 10279 10280 10281 10283 10286 10290 10293 10298 10303 10309 10317 10327 10336 10342 10349 10359 10371 10383 10395 10409 10422 10436 10452 10462 10469 10483 10496 10503 10509 10518 10524 10530 10539 10550 10566 10582 10589 10592 10599 10607 10615 10624 10630 10633 10640 10643 10644 10648 10650 10652 10656 10658 10660 10664 10670 10676 10680
10463 10453 10444 10434 10424 10415 10407 10398 10389 10380 10370 10361 10354 10347 10338 10329 10321 10314 10308 10303 10299 10295 10291 10288 10284 10282 10279 10278 10277 10276 10276 10277 10277 10278 10280 10283 10287 10291 10296 10301 10308 10315 10323 10331 10337 10345 10356 10369 10379 10389 10400 10416 10432 10445 10455 10467 10482 10492 10500 10511 10520 10525 10534 10545 10558 10572 10578 10582 10589 10598 10605 10614 10622 10625 10630 10637 10638 10639 10642 10644 10647 10649 10651 10655 10662 10668 10674 10677
10460 10450 10441 10432 10422 10413 10405 10396 10388 10378 10368 10360 10354 10346 10336 10327 10320 10314 10307 10301 10297 10293 10289 10286 10283 10280 10278 10276 10275 10274 10274 10274 10275 10276 10278 10281 10285 10289 10294 10299 10306 10313 10320 10326 10334 10345 10355 10365 10373 10382 10396 10413 10428 10442 10457 10472 10486 10495 10506 10517 10521 10527 10539 10549 10559 10566 10571 10580 10589 10594 10602 10612 10617 10621 10627 10631 10631 10634 10637 10639 10642 10644 10648 10656 10663 10668 10672 10674
10459 10448 10438 10430 10420 10412 10403 10395 10385 10376 10368 10360 10352 10342 10334 10328 10321 10315 10308 10302 10296 10292 10288 10285 10282 10279 10277 10275 10273 10273 10273 10273 10274 10275 10277 10279 10283 10287 10292 10297 10303 10310 10317 10324 10334 10345 10354 10363 10371 10383 10398 10415 10429 10442 10454 10463 10474 10484 10495 10503 10510 10519 10530 10539 10549 10557 10565 10576 10584 10591 10601 10609 10613 10619 10624 10625 10627 10630 10633 10635 10639 10644 10650 10657 10662 10666 10668 10670
10458 10447 10437 10428 10419 10411 10402 10393 10384 10375 10367 10359 10349 10340 10333 10327 10321 10315 10308 10302 10297 10292 10287 10284 10281 10278 10276 10274 10273 10272 10272 10272 10273 10274 10276 10279 10282 10286 10290 10296 10302 10308 10315 10323 10333 10342 10351 10361 10372 10384 10397 10412 10425 10437 10447 10457 10466 10475 10486 10498 10506 10514 10525 10535 10545 10553 10563 10575 10582 10589 10598 10606 10612 10617 10618 10620 10624 10627 10629 10634 10639 10643 10648 10654 10658 10661 10663 10666
10457 10447 10435 10426 10419 10410 10401 10392 10384 10376 10367 10357 10347 10340 10334 10328 10321 10315 10309 10303 10297 10292 10288 10284 10281 10278 10276 10274 10273 10272 10272 10272 10273 10274 10276 10278 10281 10285 10289 10294 10300 10307 10313 10321 10329 10339 10349 10359 10371 10384 10397 10408 10419 10430 10441 10451 10460 10473 10488 10499 10503 10512 10525 10535 10543 10552 10563 10572 10578 10585 10594 10601 10607 10610 10611 10615 10620 10623 10627 10632 10635 10639 10644 10649 10653 10656 10659 10662
10454 10445 10435 10426 10418 10410 10400 10392 10384 10376 10366 10355 10347 10341 10335 10329 10322 10315 10310 10303 10296 10292 10288 10284 10281 10278 10276 10274 10273 10272 10272 10272 10273 10274 10276 10278 10281 10284 10288 10294 10299 10306 10313 10320 10328 10335 10344 10355 10367 10381 10394 10405 10415 10425 10433 10441 10454 10470 10483 10488 10497 10513 10524 10531 10541 10552 10561 10567 10574 10582 10590 10596 10601 10603 10606 10611 10615 10618 10623 10627 10631 10636 10641 10644 10647 10651 10654 10657
10453 10444 10435 10425 10416 10409 10401 10393 10384 10374 10364 10356 10349 10342 10335 10328 10321 10315 10310 10303 10297 10292 10288 10284 10281 10278 10276 10275 10273 10273 10273 10273 10274 10275 10277 10278 10281 10284 10288 10294 10299 10305 10313 10320 10326 10333 10342 10353 10366 10378 10389 10400 10410 10420 10428 10440 10454 10467 10475 10482 10495 10507 10515 10524 10537 10548 10555 10563 10571 10579 10587 10594 10598 10600 10603 10607 10611 10614 10618 10623 10627 10631 10634 10638 10642 10646 10649 10651
10452 10443 10434 10424 10414 10407 10401 10392 10382 10373 10365 10358 10350 10342 10334 10328 10322 10317 10311 10305 10299 10293 10289 10285 10282 10280 10277 10276 10274 10273 10273 10274 10275 10276 10278 10280 10282 10285 10290 10295 10300 10306 10313 10319 10326 10333 10343 10355 10365 10374 10382 10392 10404 10416 10429 10443 10455 10465 10475 10487 10497 10505 10514 10526 10536 10543 10551 10560 10568 10576 10585 10592 10594 10597 10601 10604 10608 10611 10615 10619 10622 10625 10629 10632 10636 10640 10643 10644
10451 10441 10432 10422 10413 10405 10399 10391 10383 10375 10368 10361 10353 10345 10337 10330 10324 10318 10312 10306 10299 10294 10289 10286 10284 10282 10279 10277 10276 10275 10274 10274 10275 10277 10279 10281 10284 10287 10291 10296 10301 10306 10312 10319 10327 10334 10344 10354 10362 10371 10381 10393 10405 10416 10428 10441 10453 10466 10478 10489 10499 10509 10519 10528 10537 10544 10551 10559 10566 10575 10582 10586 10590 10594 10596 10598 10603 10608 10611 10614 10617 10620 10623 10627 10632 10635 10637 10639
10449 10439 10430 10422 10414 10405 10397 10391 10385 10377 10370 10363 10356 10347 10339 10332 10325 10318 10313 10307 10301 10296 10292 10288 10286 10284 10281 10279 10279 10277 10276 10275 10276 10278 10281 10283 10286 10289 10293 10297 10301 10305 10311 10318 10327 10336 10345 10353 10362 10374 10385 10395 10402 10411 10423 10436 10450 10464 10474 10482 10493 10505 10516 10526 10534 10541 10548 10557 10565 10572 10577 10582 10586 10589 10590 10593 10599 10603 10606 10609 10612 10616 10620 10625 10629 10631 10633 10636
10447 10439 10430 10422 10414 10406 10397 10391 10385 10379 10371 10364 10356 10349 10341 10333 10327 10320 10315 10310 10304 10298 10294 10291 10288 10286 10283 10282 10281 10280 10279 10277 10278 10280 10283 10286 10288 10291 10295 10300 10303 10308 10313 10319 10327 10336 10344 10352 10361 10370 10379 10390 10401 10411 10421 10432 10445 10459 10469 10480 10492 10503 10512 10520 10527 10535 10545 10553 10559 10565 10572 10578 10582 10584 10587 10590 10595 10598 10601 10604 10608 10613 10618 10622 10625 10626 10629 10633
10447 10439 10431 10423 10415 10407 10400 10393 10385 10378 10370 10363 10356 10350 10342 10335 10329 10323 10317 10312 10306 10300 10296 10293 10291 10288 10286 10284 10284 10283 10282 10281 10280 10281 10284 10287 10290 10294 10298 10302 10307 10313 10319 10323 10328 10335 10343 10351 10358 10363 10370 10381 10392 10403 10415 10430 10447 10461 10472 10483 10494 10501 10508 10518 10528 10537 10544 10549 10555 10561 10567 10573 10578 10581 10584 10587 10590 10593 10596 10600 10605 10611 10615 10617 10619 10621 10625 10629
10447 10439 10431 10424 10416 10408 10401 10394 10386 10379 10371 10364 10357 10350 10344 10337 10330 10324 10319 10315 10309 10303 10299 10296 10294 10292 10289 10288 10287 10286 10286 10285 10285 10285 10287 10290 10294 10297 10300 10304 10310 10316 10322 10328 10333 10338 10344 10350 10356 10364 10376 10388 10398 10413 10431 10448 10459 10466 10471 10479 10488 10496 10508 10520 10529 10536 10541 10547 10553 10558 10563 10569 10573 10576 10580 10582 10583 10587 10593 10598 10603 10607 10610 10612 10614 10617 10621 10625
10448 10437 10430 10424 10417 10409 10402 10395 10388 10381 10373 10366 10359 10352 10346 10339 10332 10327 10322 10317 10312 10306 10302 10300 10298 10296 10293 10292 10291 10290 10289 10289 10289 10290 10292 10294 10298 10300 10303 10307 10313 10319 10326 10334 10339 10342 10347 10353 10361 10373 10386 10398 10411 10426 10438 10448 10455 10462 10470 10480 10489 10498 10507 10515 10523 10530 10538 10545 10550 10554 10559 10566 10569 10571 10575 10577 10578 10584 10591 10596 10600 10603 10605 10607 10609 10613 10617 10620
10448 10438 10429 10423 10417 10410 10403 10396 10390 10383 10376 10368 10361 10355 10349 10342 10336 10330 10325 10320 10316 10311 10306 10303 10301 10300 10297 10296 10295 10294 10293 10293 10294 10295 10297 10300 10303 10305 10308 10311 10316 10323 10330 10336 10342 10346 10352 10359 10369 10379 10387 10396 10408 10420 10431 10440 10452 10463 10474 10484 10492 10499 10507 10514 10521 10528 10535 10541 10545 10549 10555 10561 10563 10566 10570 10573 10576 10581 10588 10592 10596 10598 10600 10603 10606 10610 10613 10615
10450 10440 10431 10423 10416 10410 10403 10397 10391 10384 10377 10369 10362 10356 10351 10346 10341 10334 10328 10324 10319 10314 10309 10306 10305 10304 10301 10299 10299 10298 10297 10297 10298 10300 10302 10305 10308 10311 10313 10316 10321 10326 10332 10337 10343 10350 10358 10365 10373 10381 10390 10399 10410 10422 10432 10443 10453 10462 10472 10482 10490 10499 10507 10514 10520 10526 10532 10536 10540 10545 10551 10556 10559 10563 10568 10571 10573 10578 10584 10589 10592 10594 10597 10600 10603 10606 10608 10611
10450 10441 10432 10424 10417 10410 10404 10397 10391 10384 10378 10371 10365 10359 10353 10348 10343 10338 10332 10327 10322 10317 10313 10310 10309 10308 10306 10304 10302 10301 10300 10300 10302 10304 10306 10309 10312 10315 10317 10321 10324 10329 10333 10339 10346 10353 10362 10369 10377 10385 10393 10403 10413 10423 10432 10441 10451 10460 10469 10479 10488 10497 10505 10512 10519 10525 10529 10533 10538 10544 10549 10553 10556 10561 10565 10567 10571 10575 10580 10585 10588 10590 10593 10596 10599 10601 10603 10606
10449 10441 10433 10425 10417 10411 10405 10398 10391 10385 10378 10372 10365 10360 10354 10349 10344 10340 10335 10330 10325 10321 10317 10314 10312 10312 10310 10308 10306 10305 10303 10303 10304 10306 10309 10312 10315 10317 10320 10323 10327 10331 10337 10343 10350 10357 10364 10372 10380 10389 10397 10406 10415 10424 10432 10441 10450 10459 10468 10476 10484 10492 10501 10509 10516 10522 10527 10531 10535 10539 10543 10548 10553 10558 10561 10564 10568 10572 10576 10580 10583 10585 10588 10591 10593 10595 10598 10602
10449 10442 10434 10426 10418 10411 10405 10399 10393 10386 10379 10373 10367 10360 10355 10350 10346 10342 10337 10332 10328 10324 10321 10318 10317 10316 10314 10312 10311 10309 10308 10307 10308 10309 10312 10315 10318 10320 10322 10325 10330 10335 10341 10347 10353 10361 10368 10375 10382 10390 10398 10406 10414 10423 10431 10439 10447 10455 10465 10475 10484 10492 10500 10507 10513 10519 10525 10528 10530 10534 10540 10546 10550 10554 10557 10561 10565 10568 10571 10575 10578 10580 10583 10585 10587 10590 10594 10597
10446 10440 10433 10426 10419 10412 10405 10399 10394 10388 10381 10376 10370 10364 10359 10354 10348 10344 10339 10335 10332 10328 10324 10321 10321 10319 10317 10316 10315 10313 10312 10312 10312 10314 10316 10318 10321 10323 10325 10329 10333 10338 10343 10349 10355 10362 10370 10377 10384 10391 10398 10406 10414 10422 10430 10439 10449 10460 10469 10478 10485 10491 10497 10503 10509 10515 10519 10522 10527 10534 10539 10542 10546 10550 10553 10557 10560 10563 10567 10570 10574 10576 10578 10580 10583 10586 10589 10592